When you browse on this site, cookies collect data to enhance your experience and personalize the content and advertising you see.
Visit our Privacy Policy to learn more. By continuing to use the site, you agree to this use of cookies and data.
  • In Austria
  • List of Countries
  • For 7 days
  • Water Temperature
  • Weather Map
  • News
  • Weather Widgets
  • user-avatar
    Login

    Hourly Weather Huichapan

    Today, 15 November, Friday

    Time Temperature Precipitation Wind Pressure Humidity
    00:00 +12°C° 0 mm 3 mps 596 mmHg 86%
    01:00 +13°C° 0 mm 2 mps 596 mmHg 85%
    02:00 +13°C° 0 mm 2 mps 596 mmHg 84%
    03:00 +13°C° 0 mm 2 mps 596 mmHg 86%
    04:00 +13°C° 0 mm 2 mps 596 mmHg 88%
    05:00 +12°C° 0 mm 2 mps 596 mmHg 89%
    06:00 +13°C° 0 mm 2 mps 597 mmHg 87%
    07:00 +13°C° 0 mm 2 mps 597 mmHg 85%
    08:00 +12°C° 0 mm 3 mps 598 mmHg 83%
    09:00 +13°C° 0 mm 3 mps 598 mmHg 80%
    10:00 +14°C° 0 mm 3 mps 598 mmHg 76%
    11:00 +14°C° 0 mm 3 mps 598 mmHg 73%
    12:00 +15°C° 0 mm 4 mps 597 mmHg 72%
    13:00 +15°C° 0 mm 4 mps 596 mmHg 72%
    14:00 +15°C° 0 mm 4 mps 596 mmHg 71%
    15:00 +14°C° 0 mm 4 mps 596 mmHg 74%
    16:00 +13°C° 0 mm 3 mps 596 mmHg 77%
    17:00 +12°C° 0 mm 3 mps 595 mmHg 80%
    18:00 +12°C° 0 mm 3 mps 596 mmHg 82%
    19:00 +12°C° 0 mm 2 mps 596 mmHg 84%
    20:00 +10°C° 0 mm 2 mps 596 mmHg 86%
    21:00 +10°C° 0 mm 2 mps 596 mmHg 85%
    22:00 +10°C° 0 mm 2 mps 596 mmHg 85%
    23:00 +10°C° 0 mm 2 mps 596 mmHg 85%

    Tomorrow, 16 November, Saturday

    Time Temperature Precipitation Wind Pressure Humidity
    00:00 +10°C° 0 mm 2 mps 595 mmHg 85%
    01:00 +11°C° 0 mm 1 mps 595 mmHg 84%
    02:00 +11°C° 0 mm 1 mps 595 mmHg 84%
    03:00 +11°C° 0 mm 1 mps 595 mmHg 85%
    04:00 +11°C° 0 mm 1 mps 595 mmHg 86%
    05:00 +11°C° 0 mm 1 mps 594 mmHg 87%
    06:00 +12°C° 0 mm 1 mps 595 mmHg 85%
    07:00 +12°C° 0 mm 1 mps 595 mmHg 83%
    08:00 +13°C° 0 mm 1 mps 596 mmHg 81%
    09:00 +14°C° 0 mm 1 mps 596 mmHg 76%
    10:00 +16°C° 0 mm 1 mps 596 mmHg 71%
    11:00 +17°C° 0 mm 2 mps 596 mmHg 66%
    12:00 +18°C° 0 mm 2 mps 596 mmHg 63%
    13:00 +19°C° 0 mm 2 mps 595 mmHg 60%
    14:00 +19°C° 0 mm 2 mps 595 mmHg 57%
    15:00 +18°C° 0 mm 2 mps 595 mmHg 61%
    16:00 +18°C° 0 mm 2 mps 595 mmHg 65%
    17:00 +17°C° 0 mm 2 mps 595 mmHg 68%
    18:00 +16°C° 0 mm 2 mps 595 mmHg 73%
    19:00 +15°C° 0 mm 2 mps 595 mmHg 78%
    20:00 +14°C° 0 mm 1 mps 595 mmHg 84%
    21:00 +14°C° 0 mm 1 mps 595 mmHg 85%
    22:00 +14°C° 0 mm 1 mps 594 mmHg 86%
    23:00 +13°C° 0 mm 0 mps 594 mmHg 88%

    Day after tomorrow, 17 November, Sunday

    Time Temperature Precipitation Wind Pressure Humidity
    00:00 +12°C° 0 mm 0 mps 594 mmHg 89%
    01:00 +12°C° 0 mm 0 mps 593 mmHg 90%
    02:00 +12°C° 0 mm 0 mps 593 mmHg 91%
    03:00 +12°C° 0 mm 0 mps 593 mmHg 90%
    04:00 +12°C° 0 mm 0 mps 593 mmHg 89%
    05:00 +12°C° 0 mm 0 mps 593 mmHg 88%
    06:00 +13°C° 0 mm 0 mps 594 mmHg 83%
    07:00 +14°C° 0 mm 0 mps 594 mmHg 78%
    08:00 +15°C° 0 mm 0 mps 595 mmHg 74%
    09:00 +18°C° 0 mm 1 mps 595 mmHg 68%
    10:00 +20°C° 0 mm 1 mps 595 mmHg 62%
    11:00 +21°C° 0 mm 1 mps 596 mmHg 56%
    12:00 +21°C° 0.1 mm 1 mps 595 mmHg 54%
    13:00 +21°C° 0.1 mm 2 mps 595 mmHg 52%
    14:00 +21°C° 0.1 mm 2 mps 594 mmHg 50%
    15:00 +20°C° 0.1 mm 2 mps 594 mmHg 55%
    16:00 +19°C° 0.1 mm 2 mps 594 mmHg 61%
    17:00 +18°C° 0.1 mm 2 mps 594 mmHg 67%
    18:00 +18°C° 0.2 mm 2 mps 595 mmHg 70%
    19:00 +17°C° 0.2 mm 2 mps 595 mmHg 73%
    20:00 +18°C° 0.2 mm 1 mps 595 mmHg 77%
    21:00 +16°C° 0 mm 1 mps 595 mmHg 78%
    22:00 +16°C° 0 mm 1 mps 595 mmHg 79%
    23:00 +15°C° 0 mm 0 mps 595 mmHg 81%

    18 November, Monday

    Time Temperature Precipitation Wind Pressure Humidity
    00:00 +14°C° 0 mm 0 mps 594 mmHg 82%
    01:00 +14°C° 0 mm 0 mps 594 mmHg 84%
    02:00 +14°C° 0 mm 0 mps 594 mmHg 85%
    03:00 +13°C° 0 mm 0 mps 593 mmHg 86%
    04:00 +13°C° 0 mm 0 mps 593 mmHg 87%
    05:00 +13°C° 0 mm 0 mps 593 mmHg 89%
    06:00 +14°C° 0 mm 0 mps 594 mmHg 83%
    07:00 +15°C° 0 mm 0 mps 595 mmHg 77%
    08:00 +16°C° 0 mm 0 mps 595 mmHg 71%
    09:00 +17°C° 0 mm 0 mps 595 mmHg 65%
    10:00 +20°C° 0 mm 1 mps 595 mmHg 59%
    11:00 +22°C° 0 mm 1 mps 595 mmHg 53%
    12:00 +22°C° 0 mm 1 mps 595 mmHg 51%
    13:00 +23°C° 0 mm 2 mps 595 mmHg 49%
    14:00 +23°C° 0 mm 2 mps 594 mmHg 47%
    15:00 +21°C° 0.1 mm 2 mps 594 mmHg 52%
    16:00 +20°C° 0.1 mm 2 mps 594 mmHg 57%
    17:00 +19°C° 0.1 mm 2 mps 594 mmHg 63%
    18:00 +19°C° 0.2 mm 2 mps 594 mmHg 68%
    19:00 +18°C° 0.2 mm 2 mps 594 mmHg 73%
    20:00 +18°C° 0.2 mm 1 mps 594 mmHg 79%
    21:00 +18°C° 0.2 mm 1 mps 594 mmHg 80%
    22:00 +16°C° 0.2 mm 1 mps 594 mmHg 81%
    23:00 +16°C° 0.2 mm 1 mps 594 mmHg 82%

    19 November, Tuesday

    Time Temperature Precipitation Wind Pressure Humidity
    00:00 +16°C° 0.2 mm 1 mps 594 mmHg 82%
    01:00 +16°C° 0.2 mm 1 mps 594 mmHg 81%
    02:00 +16°C° 0.2 mm 1 mps 594 mmHg 81%
    03:00 +16°C° 0.1 mm 1 mps 594 mmHg 81%
    04:00 +14°C° 0.1 mm 0 mps 594 mmHg 82%
    05:00 +14°C° 0.1 mm 0 mps 594 mmHg 83%
    06:00 +15°C° 0 mm 0 mps 594 mmHg 79%
    07:00 +18°C° 0 mm 1 mps 595 mmHg 76%
    08:00 +18°C° 0 mm 1 mps 596 mmHg 72%
    09:00 +19°C° 0.1 mm 1 mps 596 mmHg 69%
    10:00 +20°C° 0.1 mm 1 mps 596 mmHg 65%
    11:00 +20°C° 0.1 mm 2 mps 596 mmHg 62%
    12:00 +20°C° 0.5 mm 2 mps 595 mmHg 63%
    13:00 +20°C° 0.5 mm 3 mps 595 mmHg 64%
    14:00 +20°C° 0.5 mm 3 mps 594 mmHg 65%
    15:00 +19°C° 0.5 mm 3 mps 594 mmHg 70%
    16:00 +18°C° 0.5 mm 3 mps 594 mmHg 75%
    17:00 +17°C° 0.5 mm 3 mps 593 mmHg 80%
    18:00 +16°C° 0.1 mm 2 mps 594 mmHg 82%
    19:00 +16°C° 0.1 mm 2 mps 594 mmHg 84%
    20:00 +15°C° 0.1 mm 1 mps 594 mmHg 86%
    21:00 +15°C° 0 mm 1 mps 594 mmHg 87%
    22:00 +15°C° 0 mm 1 mps 594 mmHg 88%
    23:00 +15°C° 0 mm 1 mps 594 mmHg 88%

    20 November, Wednesday

    Time Temperature Precipitation Wind Pressure Humidity
    00:00 +14°C° 0 mm 1 mps 594 mmHg 88%
    01:00 +13°C° 0 mm 0 mps 593 mmHg 89%
    02:00 +13°C° 0 mm 0 mps 593 mmHg 89%
    03:00 +13°C° 0 mm 0 mps 593 mmHg 89%
    04:00 +13°C° 0 mm 0 mps 593 mmHg 89%
    05:00 +13°C° 0 mm 0 mps 593 mmHg 89%
    06:00 +15°C° 0 mm 1 mps 594 mmHg 83%
    07:00 +16°C° 0 mm 1 mps 595 mmHg 77%
    08:00 +18°C° 0 mm 1 mps 595 mmHg 71%
    09:00 +20°C° 0 mm 1 mps 595 mmHg 65%
    10:00 +21°C° 0 mm 1 mps 596 mmHg 59%
    11:00 +22°C° 0 mm 1 mps 596 mmHg 53%
    12:00 +23°C° 0 mm 2 mps 595 mmHg 51%
    13:00 +24°C° 0 mm 2 mps 595 mmHg 49%
    14:00 +24°C° 0 mm 3 mps 595 mmHg 47%
    15:00 +23°C° 0.1 mm 2 mps 595 mmHg 52%
    16:00 +22°C° 0.1 mm 1 mps 594 mmHg 57%
    17:00 +21°C° 0.1 mm 1 mps 594 mmHg 62%
    18:00 +20°C° 0 mm 1 mps 594 mmHg 65%
    19:00 +20°C° 0 mm 1 mps 595 mmHg 68%
    20:00 +19°C° 0 mm 1 mps 595 mmHg 71%
    21:00 +17°C° 0 mm 0 mps 595 mmHg 73%
    22:00 +16°C° 0 mm 0 mps 595 mmHg 75%
    23:00 +16°C° 0 mm 0 mps 595 mmHg 77%
    Show more